Regional Weather Roundup
Issued by NWS Northern Indiana

Home | Current Version | Previous Version | Graphics & Text | Print | Product List | Glossary On
Versions: 1 2 3 4 5 6 7 8 9 10 11 12 13 14 15 16 17 18 19 20 21 22 23 24 25 26 27 28 29 30 31 32 33 34 35 36 37 38 39 40 41 42 43 44 45 46 47 48 49 50
000
ASUS43 KIWX 200011
RWRIWX

KIWX WEATHER ROUNDUP
NATIONAL WEATHER SERVICE NORTHERN INDIANA
800 PM EDT TUE SEP 19 2017

NOTE: "FAIR" INDICATES FEW OR NO CLOUDS BELOW 12,000 FEET WITH NO
SIGNIFICANT WEATHER AND/OR OBSTRUCTIONS TO VISIBILITY.

* THESE STATIONS ARE NOT UNDER NWS QUALITY CONTROL. THEY ALSO MAY NOT
  REPORT WEATHER SUCH AS PRECIPITATION OR FOG.

INZ001>027-200100-
NORTHERN INDIANA

CITY           SKY/WX    TMP DP  RH WIND       PRES   REMARKS
GARY*          PTCLDY    70  66  88 VRB6      29.92S
VALPARAISO     CLEAR     70  65  84 N3        29.92S
6HR MIN TEMP:  70; 6HR MAX TEMP:  79;

MICHIGAN CITY* CLEAR     64  64 100 CALM      29.93S
LAPORTE*       CLEAR     68  64  87 N5        29.93S
6HR MIN TEMP:  68; 6HR MAX TEMP:  74;

KNOX*          CLEAR     68  64  88 N3        29.91S
SOUTH BEND     PTCLDY    69  66  90 E3        29.92F
6HR MIN TEMP:  69; 6HR MAX TEMP:  73;

ELKHART*       PTCLDY    68  64  88 E6        29.92S
GOSHEN         CLOUDY    70  64  81 NE3       29.91F
6HR MIN TEMP:  70; 6HR MAX TEMP:  73;

MONTICELLO*    CLEAR     71  67  87 CALM      29.89F
6HR MIN TEMP:  70; 6HR MAX TEMP:  79;

LOGANSPORT*    CLEAR     70  64  83 CALM      29.91F
WARSAW*        CLOUDY    70  68  94 N5        29.92S
AUBURN*        CLOUDY    68  64  88 CALM      29.93S
FORT WAYNE     CLOUDY    71  68  90 CALM      29.92S
6HR MIN TEMP:  69; 6HR MAX TEMP:  75; 6HR PCP:  0.20;

HUNTINGTON*    CLOUDY    71  67  87 CALM      29.91S
6HR MIN TEMP:  70; 6HR MAX TEMP:  76; 6HR PCP:  0.01;

PERU/GRISSOM   PTCLDY    74  64  71 CALM      29.90F
6HR MIN TEMP:  73; 6HR MAX TEMP:  79;


$$
INZ028>050-200100-
CENTRAL INDIANA

CITY           SKY/WX    TMP DP  RH WIND       PRES   REMARKS
LAFAYETTE      CLEAR     72  67  84 CALM      29.89F
6HR MIN TEMP:  72; 6HR MAX TEMP:  79;

KOKOMO*        PTCLDY    73  65  75 NW3       29.92F
6HR MIN TEMP:  73; 6HR MAX TEMP:  79;

MUNCIE*        MOCLDY    72  66  81 CALM      29.92F
6HR MIN TEMP:  72; 6HR MAX TEMP:  80; 6HR PCP: TRACE;

INDIANAPOLIS   MOCLDY    77  65  66 CALM      29.91S
6HR MIN TEMP:  76; 6HR MAX TEMP:  83; 6HR PCP: TRACE;


$$
MIZ043>046-050>051-056>058-064>065-071>073-077>080-200100-
SOUTHWEST LOWER MICHIGAN

CITY           SKY/WX    TMP DP  RH WIND       PRES   REMARKS
BATTLE CREEK   CLOUDY    70  65  84 NE7       29.94F
6HR MIN TEMP:  65; 6HR MAX TEMP:  72;

BENTON HARBOR  MOCLDY    70  64  81 CALM      29.92S
6HR MIN TEMP:  69; 6HR MAX TEMP:  76; 6HR PCP: TRACE;

COLDWATER*     CLOUDY    69  69 100 CALM      29.93S FOG
6HR MIN TEMP:  67; 6HR MAX TEMP:  70;

HILLSDALE*     CLOUDY    64  63  94 SE3       29.94R
HOLLAND        CLOUDY    72  60  66 E6        29.93F
6HR MIN TEMP:  72; 6HR MAX TEMP:  78;

GRAND RAPIDS   MOCLDY    69  61  75 NE7       29.94F
6HR MIN TEMP:  69; 6HR MAX TEMP:  75;

KALAMAZOO      RAIN      69  63  81 CALM      29.94S
6HR MIN TEMP:  68; 6HR MAX TEMP:  72; 6HR PCP:  0.02;

STURGIS*       CLOUDY    67  66  96 CALM      29.92F
6HR MIN TEMP:  67; 6HR MAX TEMP:  70; 6HR PCP:  0.09;

THREE RIVERS*  CLOUDY    69  67  93 CALM      29.93S
6HR MIN TEMP:  68; 6HR MAX TEMP:  71;


$$
OHZ001>008-015>018-024>025-200100-
NORTHWEST OHIO

CITY           SKY/WX    TMP DP  RH WIND       PRES   REMARKS
WAUSEON*       CLOUDY    70  70 100 E5        29.93S FOG
DEFIANCE       MOCLDY    68  66  93 NE3       29.93R FOG
6HR MIN TEMP:  67; 6HR MAX TEMP:  75; 6HR PCP:  0.17;

FINDLAY        CLOUDY    72  67  84 SE3       29.92F
6HR MIN TEMP:  71; 6HR MAX TEMP:  77; 6HR PCP:  0.20;

TOLEDO EXPRESS CLOUDY    69  69 100 CALM      29.93R FOG
6HR MIN TEMP:  69; 6HR MAX TEMP:  71; 6HR PCP:  0.06;

TOLEDO METCALF MOCLDY    69  67  93 E3        29.94S FOG
6HR MIN TEMP:  69; 6HR MAX TEMP:  73; 6HR PCP:  0.08;

LIMA           CLOUDY    70  67  90 S6        29.94R
6HR MIN TEMP:  70; 6HR MAX TEMP:  76; 6HR PCP:  0.07;


$$
AND FOR LAKE MICHIGAN COASTAL AND OPEN LAKE BUOY OBSERVATIONS

STATION/POSITION TEMP    WIND        PRES    VSBY  WAVE
                 AIR SEA DIR/SP/G                  HT/PER
                 (F)     (DEG/KT/KT) (MB)    (MI)  (FT/S)
CALUMET HARBOR    68      10/  4/  5 1012.6R
MICHIGAN CITY     68      30/  8/  8   N/A
BURNS HARBOR      69      70/  9/ 11 1013.5S
SAINT JOSEPH      69      CALM  /  1 1014.2
SOUTH LAKE BUOY   68 69   20/  6/  6 1013.8          1/ 3
4 MI NW BRIDGMAN  69 69   40/  6/  8 1013.0          1/ 2
MICHIGAN CITY     69 69   50/  6/  8   N/A           2/ 3

$$
&&



USA.gov is the U.S. government's official web portal to all federal, state and local government web resources and services.